Location: Newark
(39.6172°N, 96.8533°W)
Time: 09:43:11
(UTC+00:00)

Vanguard 2 - Visible Passes

Search period start: 19 February 2020 00:00
Search period end: 29 February 2020 00:00
Orbit: 552 x 2939 km, 32.9° (Epoch: 19 February)

Date Brightness Start Highest point End Pass type
(mag) Time Alt. Az. Time Alt. Az. Time Alt. Az.
19 Feb 11.2 07:54:03 19° ESE 07:54:03 19° ESE 07:58:56 10° E visible
19 Feb 9.9 09:55:27 52° S 09:57:25 55° SSE 10:13:42 10° E visible
19 Feb 10.4 11:56:52 17° WSW 12:08:56 69° S 12:26:46 10° ESE visible
20 Feb 10.9 08:10:52 25° ESE 08:10:52 25° ESE 08:17:42 10° E visible
20 Feb 9.8 10:12:15 53° SSW 10:15:13 61° SSE 10:31:54 10° E visible
20 Feb 10.4 12:13:39 13° W 12:26:57 67° S 12:44:45 10° ESE visible
21 Feb 10.7 08:27:38 32° ESE 08:27:38 32° ESE 08:36:11 10° E visible
21 Feb 9.8 10:29:02 49° SW 10:33:05 65° S 10:50:03 10° E visible
21 Feb 10.5 12:30:41 10° W 12:44:57 64° S 13:02:37 10° ESE visible
22 Feb 10.4 08:44:24 39° ESE 08:44:24 39° ESE 08:54:31 10° E visible
22 Feb 9.8 10:45:48 43° WSW 10:51:02 67° S 11:08:10 10° E visible
23 Feb 10.1 09:01:09 47° ESE 09:01:09 47° ESE 09:12:45 10° E visible
23 Feb 9.9 11:02:33 36° WSW 11:09:01 67° S 11:26:13 10° ESE visible
24 Feb 11.4 07:16:30 11° E 07:16:30 11° E 07:16:58 10° E visible
24 Feb 9.8 09:17:55 55° SE 09:17:55 55° SE 09:30:56 10° E visible
24 Feb 10.1 11:19:19 30° WSW 11:27:00 64° S 11:44:11 10° ESE visible
25 Feb 11.2 07:33:17 15° E 07:33:17 15° E 07:35:24 10° E visible
25 Feb 9.6 09:34:41 62° SSE 09:34:41 62° SSE 09:49:05 10° E visible
25 Feb 10.2 11:36:04 23° W 11:44:59 60° SSW 12:02:02 10° ESE visible
26 Feb 11.0 07:50:04 20° E 07:50:04 20° E 07:53:41 10° E visible
26 Feb 9.5 09:51:28 64° S 09:51:49 64° S 10:07:12 10° ESE visible
26 Feb 10.3 11:52:52 18° W 12:02:55 55° SSW 12:19:42 10° SE visible
27 Feb 10.8 08:06:52 24° E 08:06:52 24° E 08:11:54 10° E visible
27 Feb 9.4 10:08:16 59° SSW 10:09:46 63° S 10:25:14 10° ESE visible
27 Feb 10.4 12:09:40 13° W 12:20:50 48° SSW 12:37:09 10° SE visible
28 Feb 10.5 08:23:41 30° ESE 08:23:41 30° ESE 08:30:04 10° E visible
28 Feb 9.5 10:25:06 51° SW 10:27:42 60° S 10:43:10 10° ESE visible
28 Feb 10.6 12:26:58 10° W 12:38:42 42° SSW 12:54:19 10° SE visible
